Regional Weather Roundup
Issued by NWS

Home | Current Version | Previous Version | Graphics & Text | Print | Product List | Glossary On
Versions: 1 2 3 4 5 6 7 8 9 10 11 12 13 14 15 16 17 18 19 20 21 22 23 24 25 26 27 28 29 30 31 32 33 34 35 36 37 38 39 40 41 42 43 44 45 46 47 48 49 50
000
ASUS45 KCYS 212210
RWRWY

WYOMING REGIONAL WEATHER ROUNDUP
NATIONAL WEATHER SERVICE CHEYENNE WY
400 PM MDT THU MAY 21 2015

NOTE:  "FAIR" INDICATES FEW OR NO CLOUDS BELOW 12,000 FEET
WITH NO SIGNIFICANT WEATHER AND/OR OBSTRUCTIONS TO VISIBILITY.

WYZ001-212300-
YELLOWSTONE NATIONAL PARK

CITY           SKY/WX    TMP DP  RH WIND       PRES   REMARKS
LK YELLOWSTONE   N/A     49  35  58 CALM      30.10R
W YELLOWSTONE  NOT AVBL

$$
WYZ002>013-054>058-071-098>099-212300-
NORTHERN WYOMING

CITY           SKY/WX    TMP DP  RH WIND       PRES   REMARKS
JACKSON        SUNNY     63  46  55 SW9       29.98F
CODY           FAIR      59  41  51 CALM      30.03F
GREYBULL       FAIR      68  35  29 SE5       29.98F
WORLAND        FAIR      66  41  40 NE9       29.98F
SHERIDAN       PTSUNNY   60  40  47 SE16G25   30.05F
BUFFALO        PTSUNNY   56  41  57 SE15      30.10F
GILLETTE       FAIR      58  41  53 SE15G24   30.11F
HULETT         MOCLDY    64  32  29 E3G21     30.12S
NEWCASTLE      FAIR      59  37  44 S22G29    30.15S

$$
WYZ014>020-022>026-101>103-212300-
CENTRAL WYOMING

CITY           SKY/WX    TMP DP  RH WIND       PRES   REMARKS
BIG PINEY      PTSUNNY   59  36  42 S6        30.03F
PINEDALE       FAIR      59  32  36 CALM      30.04F
DUBOIS         FAIR      54  36  50 SE17G23   30.04F
LANDER         PTSUNNY   59  44  57 NE8       30.01F
RIVERTON       FAIR      59  41  51 E8        30.03F
CASPER         FAIR      61  43  51 E15G22    30.06F
DOUGLAS        PTSUNNY   59  42  53 SE20G26   30.11F

$$
WYZ021-027>030-104>119-212300-
SOUTHERN WYOMING

CITY           SKY/WX    TMP DP  RH WIND       PRES   REMARKS
EVANSTON       CLOUDY    49  37  63 S9        30.05S
KEMMERER       LGT RAIN  43  37  81 SE14      30.08R
FORT BRIDGER   PTCLDY    55  46  71 N8        30.04F
ROCK SPRINGS   PTSUNNY   55  37  50 E21       30.03S
DIXON          FAIR      63  34  33 E6        30.04F
RAWLINS        LGT RAIN  49  39  68 SE16      30.10R
SARATOGA       CLOUDY    46  41  81 SE12G17   30.12R
LARAMIE        LGT RAIN  43  40  89 SE9       30.16F
CHEYENNE       CLOUDY    50  40  68 S12       30.16F
TORRINGTON     CLOUDY    55  42  61 SE20G29   30.15S
PINE BLUFFS    CLOUDY    52  43  71 SE14      30.16F

$$


USA.gov is the U.S. government's official web portal to all federal, state and local government web resources and services.